TimeEDT,TemperatureF,Dew PointF,Humidity,Sea Level PressureIn,VisibilityMPH,Wind Direction,Wind SpeedMPH,Gust SpeedMPH,PrecipitationIn,Events,Conditions,WindDirDegrees,DateUTC
12:15 AM,41.0,26.6,57,29.91,10.0,West,13.8,19.6,N/A,,Clear,270,2013-03-26 04:15:00
12:35 AM,41.0,26.6,57,29.92,10.0,West,12.7,20.7,N/A,,Clear,270,2013-03-26 04:35:00
12:55 AM,41.0,26.6,57,29.92,10.0,West,11.5,17.3,N/A,,Clear,270,2013-03-26 04:55:00
1:15 AM,39.2,26.6,61,29.92,10.0,West,10.4,-,N/A,,Clear,270,2013-03-26 05:15:00
1:35 AM,39.2,26.6,61,29.93,10.0,West,10.4,17.3,N/A,,Clear,270,2013-03-26 05:35:00
1:55 AM,37.4,26.6,65,29.93,10.0,West,8.1,-,N/A,,Clear,270,2013-03-26 05:55:00
2:15 AM,37.4,26.6,65,29.93,10.0,West,9.2,-,N/A,,Clear,270,2013-03-26 06:15:00
2:35 AM,37.4,26.6,65,29.93,10.0,West,10.4,16.1,N/A,,Clear,270,2013-03-26 06:35:00
2:55 AM,37.4,26.6,65,29.93,10.0,West,8.1,-,N/A,,Clear,270,2013-03-26 06:55:00
3:15 AM,37.4,26.6,65,29.94,10.0,West,8.1,-,N/A,,Clear,280,2013-03-26 07:15:00
3:35 AM,35.6,26.6,70,29.94,10.0,West,6.9,-,N/A,,Clear,260,2013-03-26 07:35:00
3:55 AM,35.6,26.6,70,29.94,10.0,West,5.8,-,N/A,,Clear,260,2013-03-26 07:55:00
4:15 AM,35.6,26.6,70,29.95,10.0,West,6.9,-,N/A,,Clear,260,2013-03-26 08:15:00
4:35 AM,35.6,26.6,70,29.94,10.0,West,8.1,-,N/A,,Clear,270,2013-03-26 08:35:00
5:15 AM,33.8,26.6,75,29.95,10.0,West,5.8,-,N/A,,Clear,260,2013-03-26 09:15:00
5:55 AM,33.8,26.6,75,29.95,10.0,West,5.8,-,N/A,,Clear,270,2013-03-26 09:55:00
6:15 AM,33.8,26.6,75,29.95,10.0,West,6.9,-,N/A,,Clear,270,2013-03-26 10:15:00
6:35 AM,33.8,26.6,75,29.95,10.0,West,6.9,-,N/A,,Clear,260,2013-03-26 10:35:00
6:55 AM,33.8,26.6,75,29.96,10.0,WSW,6.9,-,N/A,,Clear,250,2013-03-26 10:55:00
7:15 AM,33.8,26.6,75,29.97,10.0,WSW,8.1,-,N/A,,Clear,250,2013-03-26 11:15:00
7:35 AM,32.0,26.6,80,29.97,10.0,WSW,5.8,-,N/A,,Clear,250,2013-03-26 11:35:00
8:15 AM,33.8,26.6,75,29.97,10.0,West,5.8,-,N/A,,Clear,270,2013-03-26 12:15:00
8:35 AM,35.6,26.6,70,29.98,10.0,West,9.2,-,N/A,,Clear,270,2013-03-26 12:35:00
8:55 AM,35.6,26.6,70,29.98,10.0,West,10.4,-,N/A,,Clear,270,2013-03-26 12:55:00
9:15 AM,37.4,26.6,65,29.99,10.0,West,11.5,16.1,N/A,,Clear,280,2013-03-26 13:15:00
9:35 AM,39.2,26.6,61,30.00,10.0,WNW,9.2,-,N/A,,Clear,290,2013-03-26 13:35:00
9:55 AM,41.0,26.6,57,30.00,10.0,WNW,10.4,-,N/A,,Clear,290,2013-03-26 13:55:00
10:15 AM,42.8,26.6,53,30.00,10.0,West,8.1,-,N/A,,Clear,260,2013-03-26 14:15:00
10:35 AM,44.6,26.6,49,30.00,10.0,West,5.8,-,N/A,,Clear,270,2013-03-26 14:35:00
10:55 AM,44.6,26.6,49,29.99,10.0,WNW,6.9,-,N/A,,Clear,290,2013-03-26 14:55:00
11:15 AM,46.4,26.6,46,29.99,10.0,West,6.9,-,N/A,,Clear,280,2013-03-26 15:15:00
11:35 AM,44.6,24.8,46,30.00,10.0,NW,8.1,-,N/A,,Mostly Cloudy,310,2013-03-26 15:35:00
11:55 AM,46.4,26.6,46,30.00,10.0,WNW,9.2,-,N/A,,Mostly Cloudy,300,2013-03-26 15:55:00
12:15 PM,46.4,24.8,43,29.99,10.0,WNW,11.5,16.1,N/A,,Overcast,300,2013-03-26 16:15:00
12:35 PM,46.4,26.6,46,30.00,10.0,West,10.4,16.1,N/A,,Overcast,280,2013-03-26 16:35:00
1:15 PM,46.4,26.6,46,30.00,10.0,WNW,11.5,17.3,N/A,,Overcast,300,2013-03-26 17:15:00
1:55 PM,46.4,26.6,46,30.00,10.0,NW,12.7,18.4,N/A,,Overcast,310,2013-03-26 17:55:00
2:15 PM,46.4,26.6,46,30.00,10.0,NW,15.0,18.4,N/A,,Overcast,320,2013-03-26 18:15:00
2:35 PM,46.4,26.6,46,30.00,10.0,WNW,16.1,20.7,N/A,,Overcast,300,2013-03-26 18:35:00
2:55 PM,48.2,26.6,43,30.00,10.0,West,18.4,24.2,N/A,,Overcast,280,2013-03-26 18:55:00
3:15 PM,48.2,26.6,43,30.00,10.0,WNW,10.4,21.9,N/A,,Overcast,290,2013-03-26 19:15:00
3:35 PM,50.0,26.6,40,30.00,10.0,WNW,15.0,19.6,N/A,,Overcast,290,2013-03-26 19:35:00
4:15 PM,50.0,26.6,40,30.00,10.0,WNW,10.4,20.7,N/A,,Overcast,290,2013-03-26 20:15:00
4:35 PM,50.0,26.6,40,30.00,10.0,West,17.3,24.2,N/A,,Mostly Cloudy,280,2013-03-26 20:35:00
4:55 PM,50.0,26.6,40,30.00,10.0,West,16.1,21.9,N/A,,Overcast,280,2013-03-26 20:55:00
5:15 PM,50.0,26.6,40,30.01,10.0,WNW,16.1,25.3,N/A,,Overcast,290,2013-03-26 21:15:00
5:35 PM,50.0,26.6,40,30.02,10.0,WNW,17.3,23.0,N/A,,Mostly Cloudy,290,2013-03-26 21:35:00
5:55 PM,50.0,28.4,43,30.02,10.0,West,13.8,19.6,N/A,,Mostly Cloudy,280,2013-03-26 21:55:00
6:15 PM,50.0,28.4,43,30.03,10.0,WNW,12.7,17.3,N/A,,Mostly Cloudy,290,2013-03-26 22:15:00
6:35 PM,50.0,28.4,43,30.04,10.0,WNW,8.1,-,N/A,,Mostly Cloudy,290,2013-03-26 22:35:00
6:55 PM,48.2,28.4,46,30.05,10.0,WNW,8.1,23.0,N/A,,Overcast,300,2013-03-26 22:55:00
7:15 PM,48.2,28.4,46,30.05,10.0,WNW,9.2,-,N/A,,Overcast,290,2013-03-26 23:15:00
7:35 PM,46.4,28.4,50,30.06,10.0,West,6.9,-,N/A,,Scattered Clouds,280,2013-03-26 23:35:00
7:55 PM,46.4,28.4,50,30.07,10.0,West,6.9,-,N/A,,Scattered Clouds,280,2013-03-26 23:55:00
8:15 PM,44.6,30.2,57,30.08,10.0,West,5.8,-,N/A,,Scattered Clouds,280,2013-03-27 00:15:00
8:35 PM,42.8,30.2,61,30.09,10.0,West,6.9,-,N/A,,Clear,280,2013-03-27 00:35:00
8:55 PM,42.8,30.2,61,30.10,10.0,WNW,8.1,-,N/A,,Clear,290,2013-03-27 00:55:00
9:15 PM,42.8,30.2,61,30.11,10.0,WNW,5.8,-,N/A,,Clear,290,2013-03-27 01:15:00
10:15 PM,42.8,30.2,61,30.13,10.0,West,5.8,-,N/A,,Mostly Cloudy,270,2013-03-27 02:15:00
10:35 PM,42.8,30.2,61,30.14,10.0,West,4.6,-,N/A,,Overcast,280,2013-03-27 02:35:00
11:15 PM,42.8,30.2,61,30.15,10.0,WNW,4.6,-,N/A,,Overcast,290,2013-03-27 03:15:00
11:35 PM,42.8,30.2,61,30.15,10.0,WNW,6.9,-,N/A,,Overcast,290,2013-03-27 03:35:00
11:55 PM,42.8,30.2,61,30.15,10.0,WNW,6.9,-,N/A,,Overcast,300,2013-03-27 03:55:00